Voltar ao catálogo

STARLINK-11588

AtivoComunicaçõesVLEO
NORAD 63319·PAYLOAD·🇺🇸 United States

Lançado Mar 18, 2025 de Cape Canaveral Space Force Station

Loading…

Próximas Passagens (próximas 24 horas)

TLE

AtualizadoSource: CelesTrak SupGP

Época: Sep 14, 2026, 22:48 UTC

1 63319C 25057N   26257.95048611  .00023541  00000+0  18287-3 0  2577
2 63319  43.0004 203.6182 0001609 264.1671 131.5587 15.70823254    18

Acompanhe STARLINK-11588 em tempo real com AllMySat

Download on the App Store